Flag for Canada Weather past 2 weeks in Surrey, British Columbia, Canada

Now
76 °F

Mild.


Feels Like: 78 °F
Forecast: 54 / 75 °F
Wind: 2 mph from Southwest

Location: P. Meadows Coastal Station

Current Time: Jul 28, 2015 at 1:51:08 PM

Latest Report: Jul 28, 2015 at 1:00 PM


Visibility: N/A

Pressure: 30.24 "Hg

Humidity: 46%

Dew point: 53 °F

Location of SurreyLocation

Historic Weather in Surrey — Graph

°F

Surrey temperature yesterday

Maximum temperature yesterday: 73 °F (at 5:00 PM)
Minimum temperature yesterday: 53 °F (at 4:00 AM)
Average temperature yesterday: 64 °F

Past Weeks' High & Low Weather Summary

 TemperatureHumidityPressure
High91 °F (Jul 18, 5:00 PM)97% (Jul 24, 10:00 PM)30.29 "Hg (Jul 24, 10:00 PM)
Low53 °F (Jul 23, 5:00 AM)21% (Jul 18, 5:00 PM)29.86 "Hg (Jul 22, 8:00 PM)
Average67 °F67%30.02 "Hg
* Reported Jul 13 12:00 Noon — Jul 28 12:00 Noon, Surrey, Weather by CustomWeather, © 2015

Note: Actual official high and low records may vary slightly from our data, if they occured in-between our weather recording intervals... More about our weather records

Advertising

Surrey weather history for previous 24 hours

 ConditionsComfort  
Time TempWeatherWind HumidityBarometerVisibility
12:00 PM
Tue, Jul 28
73 °FMild.3 mph52%30.26 "HgN/A
11:00 AM71 °FMild.2 mph54%30.27 "HgN/A
10:00 AM68 °FMild.2 mph61%30.27 "HgN/A
9:00 AM64 °FMild.2 mph72%30.29 "HgN/A
8:00 AM61 °FCool.1 mph78%30.28 "HgN/A
7:00 AM59 °FCool.No wind87%30.27 "HgN/A
6:00 AM54 °FCool.No wind93%30.27 "HgN/A
5:00 AM55 °FCool.No wind94%30.26 "HgN/A
4:00 AM56 °FCool.No wind90%30.25 "HgN/A
3:00 AM58 °FCool.1 mph89%30.24 "HgN/A
2:00 AM59 °FCool.No wind80%30.23 "HgN/A
1:00 AM59 °FCool.2 mph79%30.22 "HgN/A
12:00 AM59 °FCool.1 mph87%30.22 "HgN/A
11:00 PM
Mon, Jul 27
61 °FCool.1 mph80%30.21 "HgN/A
10:00 PM65 °FMild.2 mph68%30.21 "HgN/A
9:00 PM66 °FMild.2 mph62%30.20 "HgN/A
8:00 PM70 °FMild.5 mph52%30.19 "HgN/A
7:00 PM71 °FMild.5 mph49%30.18 "HgN/A
6:00 PM72 °FMild.6 mph45%30.18 "HgN/A
5:00 PM73 °FMild.7 mph47%30.18 "HgN/A
4:00 PM72 °FMild.6 mph52%30.18 "HgN/A
3:00 PM71 °FMild.3 mph53%30.18 "HgN/A
2:00 PM70 °FMild.6 mph54%30.18 "HgN/A
1:00 PM68 °FMild.3 mph61%30.18 "HgN/A
Weather by CustomWeather, © 2015

See weather overviewHow to use our weather pages